Weather Service Report


963 
ASUS42 KFFC 282103
RWRGA 
WEATHER ROUNDUP FOR GEORGIA
NATIONAL WEATHER SERVICE PEACHTREE CITY GA
500 PM EDT MON JUL 28 2014

NOTE: "FAIR" INDICATES FEW OR NO CLOUDS BELOW 12,000 FEET WITH NO
SIGNIFICANT WEATHER AND/OR OBSTRUCTIONS TO VISIBILITY. 

* = USE WITH CAUTION. THE STATIONS MARKED WITH AN ASTERISK MAY NOT
REPORT WEATHER SUCH AS PRECIPITATION, FOG, OR THUNDER AND ARE NOT 
QUALITY CONTROLLED BY NWS.

THE REMARK "TC" DENOTES TEMPERATURE READING IN DEGREES CELSIUS.

GAZ001>058-282200-
NORTH GEORGIA
  
CITY           SKY/WX    TMP DP  RH WIND       PRES   REMARKS
ATLANTA        MOSUNNY   88  60  38 NW21G29   29.91F                  
ATHENS         SUNNY     90  61  37 NW13G23   29.88S HX  90           
CHAMBLEE       MOSUNNY   88  60  38 W15G23    29.91S                  
PEACHTREE CITY MOSUNNY   92  64  39 NW14      29.90F HX  93           
ROME           MOSUNNY   88  60  38 NW14G20   29.93S                  
WEST ATLANTA   MOSUNNY   88  64  44 W13G21    29.91S                  
GAINESVILLE    MOSUNNY   86  59  39 NW14      29.93F                  
CARTERSVILLE   SUNNY     89  59  36 VRB6      29.92F                  

  
CITY           SKY/WX    TMP DP  RH WIND       PRES   REMARKS
DALTON*        MOSUNNY   82  61  47 NW13      29.95S                  
LAWRENCEVILLE* MOSUNNY   88  57  35 NW12G17   29.90F                  
MARIETTA       MOSUNNY   88  62  41 NW13G24   29.92S                  
KENNESAW*      MOSUNNY   88  59  37 NW13G21   29.93F                  
$$

GAZ059>098-102>109-282200-
CENTRAL GEORGIA
  
CITY           SKY/WX    TMP DP  RH WIND       PRES   REMARKS
AUGUSTA-BUSH   PTSUNNY   95  70  44 NW16      29.80F HX 101           
AUGUSTA-DANIEL MOSUNNY   96  66  37 NW14G20   29.83F HX  99           
COLUMBUS       MOSUNNY   94  69  44 NW12G17   29.87F HX  99           
MACON          MOSUNNY   94  72  48 W13       29.85F HX 102           
ROBINS AFB     SUNNY     96  72  46 W15G21    29.84F HX 104           

  
CITY           SKY/WX    TMP DP  RH WIND       PRES   REMARKS
LAGRANGE*      MOSUNNY   95  75  52 N14       29.89F HX 107           
SYLVANIA*      PTSUNNY   91  80  70 W3        29.84S HX 108           
MILLEDGEVILLE* SUNNY     82  59  44 W8        29.84F                  
$$

GAZ099>101-110>166-282200-
SOUTH GEORGIA
  
CITY           SKY/WX    TMP DP  RH WIND       PRES   REMARKS
SAVANNAH       PTSUNNY   95  72  47 W12       29.84S HX 103           
VALDOSTA       MOSUNNY   99  72  41 VRB6      29.90F HX 108           
ST SIMONS      MOSUNNY   96  72  45 W15G24    29.86F HX 104           
FT STEWART     PTSUNNY   98  70  40 W9G22     29.83S HX 104           
ALBANY         PTSUNNY   93  72  50 N15G23    29.92R HX 101           
HUNTER AFB     MOSUNNY   95  73  47 W13G21    29.82F HX 104           
MOODY AFB      MOSUNNY   97  85  68 SW15      29.89F HX 127           
BRUNSWICK      MOSUNNY   97  68  38 W10G18    29.86F HX 101           

  
CITY           SKY/WX    TMP DP  RH WIND       PRES   REMARKS
BAINBRIDGE*    MOSUNNY   99  77  49 W14       29.91F HX 114           
MOULTRIE*      PTSUNNY   97  70  41 W9        29.91F HX 103           
VIDALIA*         N/A     93  75  55 W9        29.85S HX 104           
WAYCROSS*      MOSUNNY  101  73  40 W16G22    29.86F HX 112           
DOUGLAS*       CLOUDY    97  70  41 W14G20    29.89F HX 103           
$$

Return to Home page


Western Regional Climate Center, wrcc@dri.edu